Погода в Буре

Россия / Забайкальский край     50°45′10″N   119°26′53″E
темп.,
°C
ветер,
м/с
пор.,
м/с
влажн.,
%
обл.,
%
осадки,
мм/ч
давл.,
гПа
погр.,
м
17 мая, пн
пн1700:00+11з4105835 0.0 1002228
03:00+9з246668 0.0 100359
06:00+8зюз117097 0.0 100312
09:00+13з22525 0.0 1003722
12:00+16зюз6938100 0.0 10012075
15:00+11ссз71179100 0.4 1001633
18:00+10зсз2781100 2.8 1000746
21:00+10зюз247916 2.8 1000104
18 мая, вт
вт1800:00+8ююз22875 0.0 100023
03:00+7ююз11885 0.0 100011
06:00+6ссз22925 0.0 100226
09:00+10ссз45395 0.0 10031090
12:00+12сз473295 0.0 10032350
15:00+15з5926100 0.0 10013093
18:00+15з8102718 0.0 10013107
21:00+10зсз223910 0.0 100216
19 мая, ср
ср1900:00+8з224155 0.0 100310
03:00+6с1146100 0.0 100410
06:00+5юв115365 0.0 100510
09:00+11ю233382 0.0 1003513
12:00+15ююз5728100 0.0 10001965
15:00+17ююз81130100 0.0 9972418
18:00+17юз61242100 0.0 9941294
21:00+15з51152100 0.1 995493
20 мая, чт
чт2000:00+8ссз488191 0.1 999399
03:00+7с687499 0.1 1002771
06:00+5с11795 0.0 100325
09:00+10с235691 0.0 1004677
12:00+14ссз113699 0.0 10031179
15:00+17юз232839 0.0 10021713
18:00+18зюз3327100 0.0 10011664
21:00+13св224088 0.0 100210
21 мая, пт
пт2100:00+11в224499 0.0 100312
03:00+9ссв2253100 0.0 100220
06:00+9ссв335986 0.0 100261
09:00+15вюв695236 0.0 999639
12:00+23ююв10134036 0.0 9951290
15:00+29ю9142111 0.0 9912928
18:00+30ююв711224 0.0 9881104
21:00+23ююз223199 0.0 99019